#timestamp,LO_Frequency,Hit 
1502161215.6,286047053.2,N
1502161235.4,286047056.9,N
1502161255.2,286047055.7,N
1502161275.1,286047057.1,N
1502161276.0,286047057.1,N
1502161295.8,286047058.8,N
1502161315.6,286047058.2,N
1502161335.4,286047058.1,N
1502161355.3,286047057.6,N
1502161375.1,286047061.5,N
1502161395.8,286047063.2,N
1502161415.7,286047063.2,N
1502161435.5,286047059.1,N
1502161455.3,286047060.1,N
1502161475.2,286047059.3,N
1502161495.9,286047060.7,N
1502161515.7,286047065.2,N
1502161535.6,286047061.2,N
1502161555.4,286047055.9,N
1502161575.2,286047057.3,N
1502161595.0,286047059.8,N
1502161596.0,286047059.8,N
1502161615.8,286047061.7,N
1502161635.6,286047063.0,N
1502161655.4,286047065.1,N
1502161675.3,286047062.2,N
1502161695.1,286047064.8,N
1502161715.8,286047064.0,N
1502161735.0,286047062.2,N
1502161735.9,286047062.2,N
1502161755.8,286047064.2,N
1502161775.6,286047068.1,N
1502161795.4,286047065.9,N
1502161815.3,286047066.4,N
1502161835.1,286047063.8,N
1502161836.0,286047063.8,N
1502161855.8,286047066.1,N
1502161875.7,286047063.2,N
1502161895.5,286047059.8,N
1502161915.3,286047064.7,N
1502161935.2,286047063.8,N
1502161955.9,286047065.7,N
1502161975.7,286047067.9,N
1502161995.5,286047065.5,N
1502162015.4,286047067.9,N
1502162035.2,286047069.6,N
1502162055.0,286047067.0,N
1502162055.9,286047067.0,N
1502162075.8,286047068.4,N
1502162095.6,286047068.3,N
1502162115.4,286047067.5,N
1502162135.3,286047067.8,N
1502162155.1,286047067.0,N
1502162156.0,286047067.0,N
1502162175.8,286047070.2,N
1502162195.7,286047072.5,N
1502162215.5,286047073.0,N
1502162235.3,286047071.3,N
1502162255.1,286047069.7,N
1502162275.9,286047069.3,N
1502162295.7,286047067.2,N
1502162315.5,286047066.1,N
1502162335.4,286047067.4,N
1502162355.2,286047067.0,N
1502162375.0,286047067.7,N
1502162375.9,286047067.7,N
1502162395.8,286047066.4,N
1502162415.6,286047069.8,N
1502162435.4,286047071.3,N
1502162455.3,286047073.9,N
1502162475.1,286047073.6,N
1502162476.0,286047073.6,N
1502162495.8,286047074.4,N
1502162515.6,286047071.9,N
1502162535.5,286047074.3,N
1502162555.3,286047070.9,N
1502162575.1,286047069.6,N
1502162595.9,286047070.8,N
1502162615.7,286047070.8,N
1502162635.5,286047069.0,N
1502162655.4,286047070.3,N
1502162675.2,286047071.2,N
1502162695.0,286047070.6,N
1502162695.9,286047070.6,N
1502162715.8,286047068.8,N
1502162735.6,286047067.0,N
1502162755.4,286047069.1,N
1502162775.3,286047070.3,N
1502162795.1,286047068.6,N
1502162796.0,286047068.6,N
1502162815.8,286047071.2,N
1502162835.6,286047071.6,N
1502162855.5,286047071.8,N
1502162875.3,286047073.2,N
1502162895.1,286047071.7,N
1502162915.9,286047073.0,N
1502162935.7,286047070.3,N
1502162955.5,286047067.9,N
1502162975.4,286047066.7,N
1502162995.2,286047067.3,N
1502163015.0,286047070.7,N
1502163015.9,286047070.7,N
1502163035.8,286047071.0,N
1502163055.6,286047066.1,N
1502163075.4,286047064.3,N
1502163095.2,286047065.3,N
1502163115.1,286047069.2,N
1502163116.0,286047069.2,N
1502163135.8,286047072.3,N
1502163155.6,286047074.5,N
1502163175.5,286047070.2,N
1502163195.3,286047072.8,N
1502163215.1,286047072.6,N
1502163235.9,286047070.5,N
1502163255.7,286047074.7,N
1502163275.5,286047072.2,N
1502163295.4,286047072.2,N
1502163315.2,286047072.9,N
1502163335.0,286047069.5,N
1502163335.9,286047069.5,N
1502163355.8,286047067.6,N
1502163375.6,286047067.7,N
1502163395.4,286047066.9,N
1502163415.3,286047067.5,N
1502163435.1,286047065.4,N
1502163436.0,286047065.4,N
1502163455.8,286047064.8,N
1502163475.6,286047063.9,N
1502163495.5,286047067.5,N
1502163515.3,286047069.3,N
1502163535.1,286047069.1,N
1502163555.5,286047070.1,N
1502163575.3,286047072.0,N
1502163595.1,286047074.7,N
1502163615.9,286047070.5,N
1502163635.7,286047067.3,N
1502163655.5,286047067.4,N
1502163675.3,286047072.9,N
1502163695.2,286047076.3,N
1502163715.0,286047075.1,N
1502163715.9,286047075.1,N
1502163735.8,286047079.5,N
1502163755.6,286047079.5,N
1502163775.4,286047076.1,N
1502163795.2,286047075.2,N
1502163815.1,286047077.2,N
1502163816.0,286047077.2,N
1502163835.8,286047076.5,N
1502163855.6,286047076.6,N
1502163875.5,286047078.3,N
1502163895.3,286047080.6,N
1502163915.1,286047080.9,N
1502163935.9,286047080.3,N
1502163955.7,286047081.5,N
1502163975.5,286047081.8,N
1502163995.4,286047084.2,N
1502164015.2,286047085.5,N
1502164035.0,286047083.6,N
1502164035.9,286047083.6,N
1502164055.7,286047083.3,N
1502164075.6,286047084.0,N
1502164095.4,286047083.7,N
1502164115.2,286047085.6,N
1502164135.1,286047084.4,N
1502164136.0,286047084.4,N
1502164155.8,286047080.7,N
1502164175.6,286047080.0,N
1502164195.5,286047081.0,N
1502164215.3,286047082.4,N
1502164235.1,286047080.5,N
1502164255.9,286047082.2,N
1502164275.7,286047076.4,N
1502164295.5,286047074.4,N
1502164315.4,286047075.4,N
1502164335.2,286047076.4,N
1502164355.0,286047079.5,N
1502164375.8,286047081.5,N
1502164395.6,286047081.1,N
1502164415.4,286047081.0,N
1502164435.3,286047079.7,N
1502164455.1,286047075.6,N
1502164456.0,286047075.6,N
1502164475.8,286047073.2,N
1502164495.7,286047072.8,N
1502164515.5,286047072.1,N
1502164535.3,286047075.4,N
1502164555.1,286047077.3,N
1502164575.9,286047075.0,N
1502164595.7,286047075.3,N
1502164615.5,286047077.7,N
1502164635.4,286047080.5,N
1502164655.2,286047080.2,N
1502164675.0,286047078.0,N
1502164675.9,286047078.0,N
1502164695.8,286047073.6,N
1502164715.6,286047078.3,N
1502164735.4,286047078.6,N
1502164755.3,286047075.3,N
1502164775.1,286047081.7,N
1502164776.0,286047081.7,N
1502164795.8,286047075.0,N
